Time,TemperatureF,DewpointF,PressureIn,WindDirection,WindDirectionDegrees,WindSpeedMPH,WindSpeedGustMPH,Humidity,HourlyPrecipIn,Conditions,Clouds,dailyrainin,SoftwareType,DateUTC
2013-09-09 00:02:00,77.6,70.0,30.01,ESE,103,3.0,5.0,78,0.00,,,0.00,weatherlink.com 1.10,2013-09-09 04:02:00,
2013-09-09 00:17:00,77.1,70.0,30.01,ESE,102,3.0,5.0,79,0.00,,,0.00,weatherlink.com 1.10,2013-09-09 04:17:00,
2013-09-09 00:32:00,76.9,70.0,30.02,East,90,2.0,5.0,80,0.00,,,0.00,weatherlink.com 1.10,2013-09-09 04:32:00,
2013-09-09 00:47:00,76.9,71.0,30.01,ESE,104,4.0,5.0,81,0.00,,,0.00,weatherlink.com 1.10,2013-09-09 04:47:00,
2013-09-09 01:02:00,76.7,71.0,30.01,East,83,2.0,3.0,82,0.00,,,0.00,weatherlink.com 1.10,2013-09-09 05:02:00,
2013-09-09 01:17:00,76.6,71.0,30.01,ENE,77,2.0,4.0,83,0.00,,,0.00,weatherlink.com 1.10,2013-09-09 05:17:00,
2013-09-09 01:32:00,76.4,71.0,30.02,East,83,3.0,4.0,83,0.00,,,0.00,weatherlink.com 1.10,2013-09-09 05:32:00,
2013-09-09 01:47:00,76.5,71.0,30.01,ENE,67,1.0,4.0,83,0.00,,,0.00,weatherlink.com 1.10,2013-09-09 05:47:00,
2013-09-09 02:02:00,76.6,71.0,30.02,East,89,2.0,4.0,83,0.00,,,0.00,weatherlink.com 1.10,2013-09-09 06:02:00,
2013-09-09 02:17:00,76.8,71.0,30.01,East,89,3.0,5.0,82,0.00,,,0.00,weatherlink.com 1.10,2013-09-09 06:17:00,
2013-09-09 02:32:00,76.3,70.0,30.01,East,101,4.0,4.0,81,0.00,,,0.00,weatherlink.com 1.10,2013-09-09 06:32:00,
2013-09-09 02:47:00,76.3,70.0,30.01,East,83,4.0,4.0,81,0.00,,,0.00,weatherlink.com 1.10,2013-09-09 06:47:00,
2013-09-09 03:02:00,76.2,70.0,30.01,East,86,2.0,4.0,81,0.00,,,0.00,weatherlink.com 1.10,2013-09-09 07:02:00,
2013-09-09 03:17:00,76.2,71.0,30.00,East,83,1.0,4.0,83,0.00,,,0.00,weatherlink.com 1.10,2013-09-09 07:17:00,
2013-09-09 03:32:00,76.1,71.0,30.01,East,89,1.0,4.0,84,0.00,,,0.00,weatherlink.com 1.10,2013-09-09 07:32:00,
2013-09-09 03:47:00,76.3,72.0,30.00,East,86,2.0,4.0,85,0.00,,,0.00,weatherlink.com 1.10,2013-09-09 07:47:00,
2013-09-09 04:02:00,76.5,72.0,30.00,East,84,2.0,4.0,85,0.00,,,0.00,weatherlink.com 1.10,2013-09-09 08:02:00,
2013-09-09 04:17:00,76.0,72.0,30.01,East,98,3.0,4.0,86,0.00,,,0.00,weatherlink.com 1.10,2013-09-09 08:17:00,
2013-09-09 04:32:00,76.1,72.0,30.01,East,96,2.0,3.0,86,0.00,,,0.00,weatherlink.com 1.10,2013-09-09 08:32:00,
2013-09-09 04:47:00,76.2,72.0,30.01,East,96,2.0,4.0,86,0.00,,,0.00,weatherlink.com 1.10,2013-09-09 08:47:00,
2013-09-09 05:02:00,76.4,72.0,30.02,East,96,2.0,2.0,87,0.00,,,0.00,weatherlink.com 1.10,2013-09-09 09:02:00,
2013-09-09 05:17:00,76.3,72.0,30.03,East,96,1.0,3.0,87,0.00,,,0.00,weatherlink.com 1.10,2013-09-09 09:17:00,
2013-09-09 05:32:00,76.1,72.0,30.03,East,94,1.0,2.0,87,0.00,,,0.00,weatherlink.com 1.10,2013-09-09 09:32:00,
2013-09-09 05:47:00,76.0,72.0,30.04,East,94,1.0,2.0,88,0.00,,,0.00,weatherlink.com 1.10,2013-09-09 09:47:00,
2013-09-09 06:02:00,76.0,73.0,30.04,ESE,111,3.0,4.0,89,0.00,,,0.00,weatherlink.com 1.10,2013-09-09 10:02:00,
2013-09-09 06:17:00,76.2,73.0,30.05,ESE,107,0.0,2.0,88,0.00,,,0.00,weatherlink.com 1.10,2013-09-09 10:17:00,
2013-09-09 06:32:00,76.2,73.0,30.05,ESE,107,1.0,1.0,88,0.00,,,0.00,weatherlink.com 1.10,2013-09-09 10:32:00,
2013-09-09 06:48:00,76.1,73.0,30.06,ESE,107,1.0,2.0,89,0.00,,,0.00,weatherlink.com 1.10,2013-09-09 10:48:00,
2013-09-09 07:04:00,76.3,73.0,30.07,ESE,108,2.0,2.0,89,0.00,,,0.00,weatherlink.com 1.10,2013-09-09 11:04:00,
2013-09-09 07:18:00,76.7,73.0,30.07,ESE,107,1.0,2.0,89,0.00,,,0.00,weatherlink.com 1.10,2013-09-09 11:18:00,
2013-09-09 07:33:00,77.3,74.0,30.07,ESE,107,2.0,5.0,89,0.00,,,0.00,weatherlink.com 1.10,2013-09-09 11:33:00,
2013-09-09 07:48:00,77.9,74.0,30.07,South,173,5.0,6.0,88,0.00,,,0.00,weatherlink.com 1.10,2013-09-09 11:48:00,
2013-09-09 08:03:00,77.9,74.0,30.08,SE,145,3.0,8.0,88,0.00,,,0.00,weatherlink.com 1.10,2013-09-09 12:03:00,
2013-09-09 08:18:00,78.1,74.0,30.08,SSW,207,5.0,9.0,88,0.00,,,0.00,weatherlink.com 1.10,2013-09-09 12:18:00,
2013-09-09 08:33:00,78.1,74.0,30.09,SSW,211,10.0,10.0,87,0.00,,,0.00,weatherlink.com 1.10,2013-09-09 12:33:00,
2013-09-09 08:48:00,78.1,74.0,30.09,SSW,212,6.0,13.0,86,0.00,,,0.00,weatherlink.com 1.10,2013-09-09 12:48:00,
2013-09-09 09:03:00,78.7,74.0,30.10,SSW,193,3.0,11.0,84,0.00,,,0.00,weatherlink.com 1.10,2013-09-09 13:03:00,
2013-09-09 09:18:00,79.1,72.0,30.11,SW,226,6.0,11.0,80,0.00,,,0.00,weatherlink.com 1.10,2013-09-09 13:18:00,
2013-09-09 09:33:00,79.4,72.0,30.12,SSW,207,5.0,11.0,78,0.00,,,0.00,weatherlink.com 1.10,2013-09-09 13:33:00,
2013-09-09 09:48:00,80.1,73.0,30.12,SSW,195,5.0,12.0,78,0.00,,,0.00,weatherlink.com 1.10,2013-09-09 13:48:00,
2013-09-09 10:03:00,80.3,72.0,30.12,SW,231,8.0,11.0,76,0.00,,,0.00,weatherlink.com 1.10,2013-09-09 14:03:00,
2013-09-09 10:18:00,80.7,71.0,30.12,SW,230,8.0,13.0,73,0.00,,,0.00,weatherlink.com 1.10,2013-09-09 14:18:00,
2013-09-09 10:33:00,80.7,71.0,30.12,WSW,239,9.0,14.0,72,0.00,,,0.00,weatherlink.com 1.10,2013-09-09 14:33:00,
2013-09-09 10:48:00,80.8,71.0,30.13,SW,230,12.0,13.0,72,0.00,,,0.00,weatherlink.com 1.10,2013-09-09 14:48:00,
2013-09-09 11:03:00,80.9,70.0,30.13,WSW,237,5.0,13.0,69,0.00,,,0.00,weatherlink.com 1.10,2013-09-09 15:03:00,
2013-09-09 11:18:00,81.3,69.0,30.13,SW,225,10.0,13.0,66,0.00,,,0.00,weatherlink.com 1.10,2013-09-09 15:18:00,
2013-09-09 11:33:00,81.5,70.0,30.14,WSW,241,8.0,13.0,68,0.00,,,0.00,weatherlink.com 1.10,2013-09-09 15:33:00,
2013-09-09 11:48:00,81.4,70.0,30.13,WSW,240,8.0,14.0,69,0.00,,,0.00,weatherlink.com 1.10,2013-09-09 15:48:00,
2013-09-09 12:03:00,81.6,71.0,30.14,SW,224,8.0,15.0,69,0.00,,,0.00,weatherlink.com 1.10,2013-09-09 16:03:00,
2013-09-09 12:18:00,81.9,71.0,30.14,WSW,239,4.0,12.0,69,0.00,,,0.00,weatherlink.com 1.10,2013-09-09 16:18:00,
2013-09-09 12:33:00,82.5,71.0,30.13,WNW,299,9.0,11.0,68,0.00,,,0.00,weatherlink.com 1.10,2013-09-09 16:33:00,
2013-09-09 12:48:00,81.8,71.0,30.14,West,274,6.0,11.0,70,0.00,,,0.00,weatherlink.com 1.10,2013-09-09 16:48:00,
2013-09-09 13:03:00,81.6,72.0,30.14,NW,314,7.0,11.0,72,0.00,,,0.00,weatherlink.com 1.10,2013-09-09 17:03:00,
2013-09-09 13:18:00,81.3,73.0,30.14,West,278,5.0,11.0,75,0.00,,,0.00,weatherlink.com 1.10,2013-09-09 17:18:00,
2013-09-09 13:33:00,80.9,72.0,30.14,West,266,8.0,11.0,74,0.00,,,0.00,weatherlink.com 1.10,2013-09-09 17:33:00,
2013-09-09 13:48:00,81.0,72.0,30.13,WSW,252,4.0,11.0,75,0.00,,,0.00,weatherlink.com 1.10,2013-09-09 17:48:00,
2013-09-09 14:03:00,81.3,72.0,30.14,NW,307,8.0,10.0,73,0.00,,,0.00,weatherlink.com 1.10,2013-09-09 18:03:00,
2013-09-09 14:18:00,81.3,72.0,30.13,West,261,8.0,12.0,74,0.00,,,0.00,weatherlink.com 1.10,2013-09-09 18:18:00,
2013-09-09 14:33:00,81.8,73.0,30.13,NW,306,5.0,10.0,75,0.00,,,0.00,weatherlink.com 1.10,2013-09-09 18:33:00,
2013-09-09 14:48:00,81.8,72.0,30.13,NW,320,5.0,10.0,73,0.00,,,0.00,weatherlink.com 1.10,2013-09-09 18:48:00,
2013-09-09 15:03:00,81.9,72.0,30.13,WNW,298,9.0,9.0,72,0.00,,,0.00,weatherlink.com 1.10,2013-09-09 19:03:00,
2013-09-09 15:18:00,82.1,72.0,30.12,WNW,290,6.0,9.0,71,0.00,,,0.00,weatherlink.com 1.10,2013-09-09 19:18:00,
2013-09-09 15:33:00,81.6,71.0,30.12,NNW,327,6.0,11.0,71,0.00,,,0.00,weatherlink.com 1.10,2013-09-09 19:33:00,
2013-09-09 15:48:00,81.8,72.0,30.12,WNW,282,5.0,10.0,72,0.00,,,0.00,weatherlink.com 1.10,2013-09-09 19:48:00,
2013-09-09 16:03:00,82.3,72.0,30.12,WNW,299,7.0,9.0,70,0.00,,,0.00,weatherlink.com 1.10,2013-09-09 20:03:00,
2013-09-09 16:18:00,82.1,72.0,30.12,NW,319,4.0,9.0,72,0.00,,,0.00,weatherlink.com 1.10,2013-09-09 20:18:00,
2013-09-09 16:33:00,82.1,73.0,30.12,NW,321,3.0,9.0,73,0.00,,,0.00,weatherlink.com 1.10,2013-09-09 20:33:00,
2013-09-09 16:48:00,82.1,72.0,30.12,West,268,7.0,8.0,71,0.00,,,0.00,weatherlink.com 1.10,2013-09-09 20:48:00,
2013-09-09 17:03:00,82.6,71.0,30.12,SW,231,6.0,7.0,68,0.00,,,0.00,weatherlink.com 1.10,2013-09-09 21:03:00,
2013-09-09 17:18:00,82.2,72.0,30.13,SW,236,10.0,12.0,70,0.00,,,0.00,weatherlink.com 1.10,2013-09-09 21:18:00,
2013-09-09 17:33:00,81.7,71.0,30.13,West,277,3.0,12.0,69,0.00,,,0.00,weatherlink.com 1.10,2013-09-09 21:33:00,
2013-09-09 17:48:00,81.3,72.0,30.12,WSW,243,4.0,11.0,73,0.00,,,0.00,weatherlink.com 1.10,2013-09-09 21:48:00,
2013-09-09 18:03:00,81.4,72.0,30.12,WSW,238,7.0,11.0,72,0.00,,,0.00,weatherlink.com 1.10,2013-09-09 22:03:00,
2013-09-09 18:18:00,80.8,72.0,30.12,WNW,284,2.0,9.0,75,0.00,,,0.00,weatherlink.com 1.10,2013-09-09 22:18:00,
2013-09-09 18:33:00,80.2,72.0,30.13,WSW,250,4.0,10.0,76,0.00,,,0.00,weatherlink.com 1.10,2013-09-09 22:33:00,
2013-09-09 18:48:00,79.7,72.0,30.13,WSW,252,4.0,9.0,78,0.00,,,0.00,weatherlink.com 1.10,2013-09-09 22:48:00,
2013-09-09 19:03:00,78.9,72.0,30.13,SW,236,4.0,7.0,80,0.00,,,0.00,weatherlink.com 1.10,2013-09-09 23:03:00,
2013-09-09 19:18:00,77.9,72.0,30.13,WSW,241,5.0,7.0,83,0.00,,,0.00,weatherlink.com 1.10,2013-09-09 23:18:00,
2013-09-09 19:34:00,77.5,72.0,30.13,West,271,2.0,7.0,83,0.00,,,0.00,weatherlink.com 1.10,2013-09-09 23:34:00,
2013-09-09 19:48:00,77.0,72.0,30.14,SW,226,5.0,8.0,85,0.00,,,0.00,weatherlink.com 1.10,2013-09-09 23:48:00,
2013-09-09 20:04:00,76.4,72.0,30.14,SW,227,4.0,8.0,85,0.00,,,0.00,weatherlink.com 1.10,2013-09-10 00:04:00,
2013-09-09 20:19:00,76.2,72.0,30.14,WSW,245,6.0,8.0,86,0.00,,,0.00,weatherlink.com 1.10,2013-09-10 00:19:00,
2013-09-09 20:34:00,76.0,72.0,30.14,WSW,243,4.0,8.0,87,0.00,,,0.00,weatherlink.com 1.10,2013-09-10 00:34:00,
2013-09-09 20:49:00,75.8,72.0,30.15,WSW,245,5.0,7.0,87,0.00,,,0.00,weatherlink.com 1.10,2013-09-10 00:49:00,
2013-09-09 21:04:00,75.7,72.0,30.15,WSW,238,3.0,8.0,87,0.00,,,0.00,weatherlink.com 1.10,2013-09-10 01:04:00,
2013-09-09 21:19:00,75.7,71.0,30.14,WSW,243,4.0,7.0,86,0.00,,,0.00,weatherlink.com 1.10,2013-09-10 01:19:00,
2013-09-09 21:34:00,75.7,71.0,30.15,SW,225,3.0,9.0,84,0.00,,,0.00,weatherlink.com 1.10,2013-09-10 01:34:00,
2013-09-09 21:49:00,75.5,70.0,30.15,SW,235,4.0,7.0,84,0.00,,,0.00,weatherlink.com 1.10,2013-09-10 01:49:00,
2013-09-09 22:04:00,75.3,70.0,30.15,SSW,208,3.0,8.0,84,0.00,,,0.00,weatherlink.com 1.10,2013-09-10 02:04:00,
2013-09-09 22:19:00,75.3,71.0,30.15,West,260,3.0,7.0,85,0.00,,,0.00,weatherlink.com 1.10,2013-09-10 02:19:00,
2013-09-09 22:35:00,75.3,70.0,30.16,SW,229,2.0,6.0,83,0.00,,,0.00,weatherlink.com 1.10,2013-09-10 02:35:00,
2013-09-09 22:49:00,75.2,70.0,30.16,WSW,243,6.0,8.0,84,0.00,,,0.00,weatherlink.com 1.10,2013-09-10 02:49:00,
2013-09-09 23:04:00,75.2,70.0,30.16,SW,226,4.0,7.0,84,0.00,,,0.00,weatherlink.com 1.10,2013-09-10 03:04:00,
2013-09-09 23:19:00,75.2,70.0,30.16,WSW,240,5.0,7.0,84,0.00,,,0.00,weatherlink.com 1.10,2013-09-10 03:19:00,
2013-09-09 23:34:00,75.0,70.0,30.16,SW,229,3.0,7.0,84,0.00,,,0.00,weatherlink.com 1.10,2013-09-10 03:34:00,
2013-09-09 23:49:00,75.2,70.0,30.16,WSW,246,4.0,7.0,83,0.00,,,0.00,weatherlink.com 1.10,2013-09-10 03:49:00,